Weather in Bilbays

Egypt     30°25′23″N   31°34′02″E
temp.,
°C
wind,
m/s
gust,
m/s
humid.,
%
clouds,
%
prec.,
mm/h
press.,
hPa
HPBL,
m
18 may, tue
tue1823:00+19n25720 0.0 1014250
02:00+18n23780 0.0 1013109
05:00+17nne22820 0.0 101448
08:00+24nne45510 0.0 1014720
11:00+31nne45250 0.0 10131476
14:00+35nne66170 0.0 10112131
17:00+31ne87220 0.0 10121515
20:00+24ne59450 0.0 1014379
19 may, wed
wed1923:00+21ne36660 0.0 1014196
02:00+19nne23750 0.0 101378
05:00+18nne23800 0.0 101368
08:00+25ne46470 0.0 1014673
11:00+33ne56220 0.0 10131552
14:00+35ne77170 0.0 10111895
17:00+32ne88230 0.0 10111227
20:00+24ne59470 0.0 1012332
20 may, thu
thu2023:00+21nne38690 0.0 1013259
02:00+20nne36770 0.0 1012173
05:00+19ne23810 0.0 101259
08:00+27n45400 0.0 1012577
11:00+35nne56180 0.0 10111601
14:00+37nne76130 0.0 10092147
17:00+34nne87180 0.0 10091584
20:00+25n59355 0.0 1011324
21 may, fri
fri2123:00+22nne23510 0.0 101267
02:00+20nw23620 0.0 101156
05:00+19nw11650 0.0 101111
08:00+26nw34390 0.0 1012483
11:00+34nnw45170 0.0 10101487
14:00+38nnw98120 0.0 10092436
17:00+32nnw89200 0.0 10101223
20:00+24nnw59450 0.0 1012412
22 may, sat
sat2223:00+21nnw38740 0.0 1014416
02:00+19wnw26790 0.0 1013263
05:00+18nw24830 0.0 1013146
08:00+23nnw45530 0.0 1014963
11:00+30nnw45190 0.0 10131858
14:00+32nnw86160 0.0 10122424
17:00+27nnw87280 0.0 10131605
20:00+21nnw59470 0.0 1015456